Hourly Data Report for September 05, 2018

SHEARWATER RCS
NOVA SCOTIA
Current Station Operator: ECCC - MSC

44°37'47.000" N
63°30'48.000" W
24.00 m
8205092
71264
AAW

Download Data

Hourly Data (September 2018)
Hourly Data Report for September 5, 2018
TIME Temp Definition
°C
Dew Point Definition
°C
Rel Hum Definition
%
Wind Dir Definition
10's deg

Wind Spd Definition
km/h
Visibility Definition
km
Stn Press Definition
kPa
Hmdx Definition


Wind Chill Definition


Weather Definition


00:00 14.5 12.3 87 30 4   101.90     LegendNANA
01:00 15.1 12.2 83 31 6   101.93     LegendNANA
02:00 14.9 11.6 81 32 7   101.93     LegendNANA
03:00 14.8 11.4 80 31 7   101.93     LegendNANA
04:00 14.5 11.6 83 32 7   101.95     LegendNANA
05:00 13.2 11.1 88 27 2   101.98     LegendNANA
06:00 13.0 11.0 88 21 2   102.02     LegendNANA
07:00 15.9 12.3 80 30 4   102.09     LegendNANA
08:00 18.7 12.9 69 32 6   102.12     LegendNANA
09:00 21.2 12.9 59 32 4   102.14     LegendNANA
10:00 21.6 13.7 61 20 11   102.15 25   LegendNANA
11:00 21.8 13.3 59 17 13   102.10 25   LegendNANA
12:00 22.1 13.8 60 16 17   102.05 25   LegendNANA
13:00 22.4 13.1 56 16 15   102.05 25   LegendNANA
14:00 23.8 11.9 47 17 17   102.03 26   LegendNANA
15:00 24.0 13.2 51 18 16   101.99 27   LegendNANA
16:00 24.2 8.3 36 21 15   101.97 25   LegendNANA
17:00 22.7 11.8 50 21 12   101.96 25   LegendNANA
18:00 21.7 11.5 52 27 6   101.94     LegendNANA
19:00 20.2 12.4 61 22 3   101.92     LegendNANA
20:00 19.0 14.7 76 21 3   101.95     LegendNANA
21:00 20.1 14.0 68 20 14   101.91     LegendNANA
22:00 19.3 14.8 76 19 5   101.88     LegendNANA
23:00 19.1 14.6 75 19 11   101.87     LegendNANA

Notes on Data Quality.

Legend

  • E = Estimated
  • M = Missing
  • NA = Not Available*
  • [empty] = Indicates an unobserved value
Date modified: